Date String (YYYY-MM-DD hh:mm:ss) UTC,Instrument flags,Ambient pressure (hPa),Sample flow (lpm),Bypass flow (lpm),Sample temperature (°C),Ambient temperature (°C),ASC tube jacket temperature (°C),LED temperature (°C),Box temperature (°C),Sample RH (%),Span deviation,Mass concentration (μg/m³),Mass concentration (μg/m³),Mass concentration (μg/m³)
DateTimeUTC,F1_M11,P_M11,Q1_M11,Q2_M11,T1_M11,T2_M11,T3_M11,T4_M11,T5_M11,U1_M11,ZSPAN_M11,X2_M11,X0_M11,X1_M11
2022-04-19 08:00:00,,0821.8,5.01,0.00,27.8,26.7,00.0,36.8,29.5,11.6,0001.4,0008.23,0029.08,0004.76
2022-04-19 08:01:00,,0821.8,4.98,0.00,27.8,26.7,00.0,36.8,29.5,11.9,0002.8,0008.18,0027.76,0004.83
2022-04-19 08:02:00,,0821.8,5.00,0.00,27.8,26.6,00.0,36.7,29.5,12.1,0002.2,0008.13,0026.88,0004.93
2022-04-19 08:03:00,,0821.8,5.02,0.00,27.7,26.6,00.0,36.7,29.5,12.3,0001.8,0008.15,0026.46,0005.03
2022-04-19 08:04:00,,0821.8,4.99,0.00,27.7,26.6,00.0,36.7,29.4,12.4,0001.9,0008.12,0026.84,0005.14
2022-04-19 08:05:00,,0821.7,5.00,0.00,27.7,26.6,00.0,36.7,29.4,12.5,0001.9,0008.15,0026.51,0005.25
2022-04-19 08:06:00,,0821.7,5.00,0.00,27.7,26.6,00.0,36.7,29.5,12.5,0000.4,0008.20,0026.00,0005.36
2022-04-19 08:07:00,,0821.7,5.01,0.00,27.7,26.6,00.0,36.7,29.5,12.8,-000.0,0008.31,0025.11,0005.49
2022-04-19 08:08:00,,0821.6,4.99,0.00,27.7,26.6,00.0,36.7,29.4,13.1,-000.5,0008.52,0025.19,0005.64
2022-04-19 08:09:00,,0821.7,5.00,0.00,27.7,26.6,00.0,36.7,29.4,13.2,0000.2,0008.71,0025.12,0005.81
2022-04-19 08:10:00,,0821.6,5.00,0.00,27.6,26.5,00.0,36.7,29.4,13.2,-000.1,0008.83,0024.57,0005.98
2022-04-19 08:11:00,,0821.6,5.01,0.00,27.6,26.5,00.0,36.6,29.4,13.3,0000.2,0008.81,0025.65,0006.12
2022-04-19 08:12:00,,0821.4,5.00,0.00,27.6,26.5,00.0,36.6,29.4,13.2,0000.5,0008.87,0026.44,0006.24
2022-04-19 08:13:00,,0821.4,5.00,0.00,27.6,26.5,00.0,36.6,29.3,13.4,0001.0,0009.02,0026.30,0006.33
2022-04-19 08:14:00,,0821.4,5.00,0.00,27.6,26.5,00.0,36.6,29.3,13.5,0001.0,0009.11,0026.66,0006.44
2022-04-19 08:15:00,,0821.5,5.00,0.00,27.6,26.5,00.0,36.6,29.3,13.5,0000.4,0009.21,0027.28,0006.55
2022-04-19 08:16:00,,0821.6,4.99,0.00,27.6,26.4,00.0,36.6,29.3,13.4,0000.3,0009.34,0028.05,0006.65
2022-04-19 08:17:00,,0821.6,5.00,0.00,27.5,26.4,00.0,36.6,29.3,13.5,0001.0,0009.56,0029.65,0006.74
2022-04-19 08:18:00,,0821.5,5.01,0.00,27.5,26.4,00.0,36.6,29.2,13.8,0001.2,0009.67,0029.40,0006.85
2022-04-19 08:19:00,,0821.6,5.00,0.00,27.5,26.4,00.0,36.6,29.2,13.7,0000.6,0009.69,0030.05,0006.93
2022-04-19 08:20:00,,0821.6,4.99,0.00,27.5,26.4,00.0,36.5,29.2,13.9,-000.2,0009.67,0029.04,0006.99
2022-04-19 08:21:00,,0821.6,5.01,0.00,27.5,26.4,00.0,36.5,29.2,14.0,-000.3,0009.75,0027.88,0007.06
2022-04-19 08:22:00,,0821.5,5.00,0.00,27.5,26.4,00.0,36.5,29.2,14.1,0000.2,0009.91,0028.00,0007.15
2022-04-19 08:23:00,,0821.4,5.00,0.00,27.5,26.3,00.0,36.5,29.2,14.0,-000.1,0010.07,0027.50,0007.23
2022-04-19 08:24:00,,0821.4,5.00,0.00,27.4,26.4,00.0,36.5,29.2,14.2,-000.4,0010.11,0027.50,0007.33
2022-04-19 08:25:00,,0821.4,4.99,0.00,27.4,26.3,00.0,36.5,29.2,14.4,0000.2,0010.22,0028.09,0007.44
2022-04-19 08:26:00,,0821.4,4.99,0.00,27.4,26.3,00.0,36.4,29.2,14.4,0000.5,0010.31,0027.39,0007.54
2022-04-19 08:27:00,,0821.5,4.99,0.00,27.4,26.3,00.0,36.4,29.2,14.4,0000.5,0010.40,0027.39,0007.65
2022-04-19 08:28:00,,0821.5,5.01,0.00,27.4,26.3,00.0,36.4,29.2,14.3,0000.1,0010.45,0026.99,0007.77
2022-04-19 08:29:00,,0821.4,5.00,0.00,27.4,26.3,00.0,36.4,29.1,14.4,0000.2,0010.54,0027.94,0007.84
2022-04-19 08:30:00,,0821.2,5.00,0.00,27.4,26.3,00.0,36.4,29.1,14.5,0001.0,0010.73,0028.86,0007.94
2022-04-19 08:31:00,,0821.2,5.00,0.00,27.4,26.3,00.0,36.4,29.2,14.6,0001.3,0010.94,0029.66,0008.06
2022-04-19 08:32:00,,0821.3,5.00,0.00,27.4,26.3,00.0,36.4,29.2,14.6,0001.5,0011.04,0029.99,0008.14
2022-04-19 08:33:00,,0821.4,5.00,0.00,27.4,26.3,00.0,36.4,29.2,14.6,0001.1,0011.10,0028.83,0008.20
2022-04-19 08:34:00,,0821.4,5.01,0.00,27.4,26.3,00.0,36.3,29.1,14.4,0001.1,0011.12,0028.28,0008.25
2022-04-19 08:35:00,,0821.4,5.00,0.00,27.4,26.3,00.0,36.3,29.2,14.3,0001.1,0011.16,0030.45,0008.27
2022-04-19 08:36:00,,0821.4,5.00,0.00,27.3,26.3,00.0,36.3,29.2,14.4,0000.8,0011.20,0031.77,0008.29
2022-04-19 08:37:00,,0821.4,5.00,0.00,27.3,26.3,00.0,36.3,29.1,14.4,0000.6,0011.22,0032.92,0008.30
2022-04-19 08:38:00,,0821.4,5.01,0.00,27.3,26.3,00.0,36.3,29.1,14.5,0000.8,0011.19,0032.33,0008.31
2022-04-19 08:39:00,,0821.3,5.00,0.00,27.3,26.2,00.0,36.3,29.1,14.5,0001.1,0011.07,0032.32,0008.30
2022-04-19 08:40:00,,0821.3,5.00,0.00,27.3,26.2,00.0,36.3,29.1,14.5,0001.5,0011.01,0032.72,0008.31
2022-04-19 08:41:00,,0821.3,5.00,0.00,27.3,26.2,00.0,36.3,29.1,14.5,0001.4,0010.91,0031.02,0008.27
2022-04-19 08:42:00,,0821.3,4.99,0.00,27.3,26.2,00.0,36.3,29.1,14.5,0001.3,0010.76,0030.35,0008.22
2022-04-19 08:43:00,,0821.3,5.01,0.00,27.3,26.2,00.0,36.3,29.1,14.5,0001.4,0010.71,0030.07,0008.17
2022-04-19 08:44:00,,0821.2,5.00,0.00,27.3,26.2,00.0,36.3,29.1,14.5,0001.6,0010.67,0029.75,0008.15
2022-04-19 08:45:00,,0821.1,5.00,0.00,27.3,26.2,00.0,36.2,29.1,14.5,0001.8,0010.68,0030.44,0008.14
2022-04-19 08:46:00,,0821.2,5.00,0.00,27.3,26.2,00.0,36.2,29.1,14.5,0001.8,0010.61,0029.46,0008.15
2022-04-19 08:47:00,,0821.3,4.99,0.00,27.3,26.2,00.0,36.2,29.0,14.5,0002.1,0010.53,0027.79,0008.12
2022-04-19 08:48:00,,0821.3,5.02,0.00,27.3,26.2,00.0,36.2,29.0,14.4,0002.3,0010.46,0025.64,0008.11
2022-04-19 08:49:00,,0821.3,5.00,0.00,27.3,26.2,00.0,36.2,29.1,14.5,0002.2,0010.42,0025.28,0008.08
2022-04-19 08:50:00,,0821.3,4.99,0.00,27.3,26.2,00.0,36.2,29.0,14.5,0002.5,0010.41,0024.75,0008.07
2022-04-19 08:51:00,,0821.3,4.99,0.00,27.3,26.2,00.0,36.2,29.0,14.5,0002.4,0010.42,0023.01,0008.05
2022-04-19 08:52:00,,0821.2,4.99,0.00,27.3,26.2,00.0,36.2,29.0,14.5,0002.4,0010.42,0022.79,0008.04
2022-04-19 08:53:00,,0821.2,5.01,0.00,27.2,26.2,00.0,36.2,29.0,14.5,0002.4,0010.39,0024.23,0008.03
2022-04-19 08:54:00,,0821.1,5.01,0.00,27.2,26.2,00.0,36.2,29.0,14.5,0001.8,0010.36,0024.81,0008.02
2022-04-19 08:55:00,,0821.0,4.99,0.00,27.2,26.2,00.0,36.2,29.0,14.5,0001.6,0010.33,0025.93,0008.01
2022-04-19 08:56:00,,0821.0,5.00,0.00,27.2,26.2,00.0,36.2,29.0,14.5,0001.5,0010.35,0025.58,0008.01
2022-04-19 08:57:00,,0821.1,4.99,0.00,27.2,26.2,00.0,36.2,29.0,14.4,0001.5,0010.35,0025.73,0007.97
2022-04-19 08:58:00,,0821.0,5.01,0.00,27.2,26.2,00.0,36.2,29.0,14.4,0001.0,0010.32,0025.47,0007.94
2022-04-19 08:59:00,,0821.0,4.99,0.00,27.2,26.2,00.0,36.2,29.0,14.3,0000.7,0010.34,0025.77,0007.91
